Station DILA1 - 8735180 - Dauphin Island, AL Image indicating link to RSS feed of recent meteorological observations for station DILA1


Conditions at DILA1 as of
0748 GMT on 09/01/2026:
     

Click on the graph icon in the table below to see a time series plot of the last five days of that observation.

5-day plot - Wind Direction Wind Direction (WDIR): S ( 170 deg true )
5-day plot - Wind Speed Wind Speed (WSPD): 6.0 kts
5-day plot - Wind Gust Wind Gust (GST): 8.0 kts
5-day plot - Atmospheric Pressure Atmospheric Pressure (PRES):29.98 in
5-day plot - Air Temperature Air Temperature (ATMP): 84.4 °F
5-day plot - Water Temperature Water Temperature (WTMP): 85.5 °F
5-day plot - Wind Speed at 10 Meters Wind Speed at 10 meters (WSPD10M): 7.8 kts
5-day plot - Wind Speed at 20 Meters Wind Speed at 20 meters (WSPD20M): 7.8 kts
5-day plot -  Wind Speed, Wind Gust and Atmospheric Pressure Combined plot of Wind Speed, Gust, and Air Pressure
NOS Water Level Observation Network Water Level
Previous observations
TIME
(GMT)
5-day plot - Wind Direction
WDIR
 
5-day plot - Wind Speed
WSPD
kts
5-day plot - Wind Gust
GST
kts
5-day plot - Wave Height
WVHT
ft
5-day plot - Dominant Wave Period
DPD
sec
5-day plot - Average Wave Period
APD
sec
5-day plot - Mean Wave Direction
MWD
 
5-day plot - Atmospheric Pressure
PRES
in
5-day plot - Pressure Tendency
PTDY
in
5-day plot - Air Temperature
ATMP
°F
5-day plot - Water Temperature
WTMP
°F
5-day plot - Dew Point
DEWP
°F
5-day plot - Salinity
SAL
psu
5-day plot - Visibility
VIS
nmi
5-day plot - Tide (above MLLW)
TIDE
ft
2026-09-01 0742 S 6.0 8.9----29.98- 84.6 85.5----
2026-09-01 0736 S 7.0 8.0----29.98- 84.6 85.3----
2026-09-01 0730 S 7.0 8.0----29.99- 84.6 85.5----
2026-09-01 0724SSE 7.0 8.0----29.99- 84.6 85.5----
2026-09-01 0718SSE 7.0 8.0----29.99- 84.6 85.5----
2026-09-01 0712SSE 7.0 8.0----29.99- 84.4 85.5----
2026-09-01 0706SSE 7.0 8.0----29.99- 84.6 85.5----
2026-09-01 0700SSE 7.0 8.0------ 84.4 85.5----
2026-09-01 0654SSE 6.0 8.0------ 84.4 85.5----
2026-09-01 0648SSE 7.0 8.0----29.99- 84.4 85.5----
2026-09-01 0642SSE 7.0 8.9----29.99- 84.4 85.6----
2026-09-01 0636SSE 7.0 8.0----30.00- 84.2 85.6----
2026-09-01 0630SSE 8.0 8.0----30.00-- 85.6----
2026-09-01 0624 SE 6.0 7.0----30.00-- 85.6----
2026-09-01 0618SSE 8.0 8.9----30.00-- 85.6----
2026-09-01 0612SSE 8.0 8.0----30.00-- 85.6----
2026-09-01 0606SSE 7.0 8.0----30.00-- 85.6----
2026-09-01 0600SSE 8.0 8.9----30.00+0.00 84.4 85.6----
2026-09-01 0554SSE 7.0 8.9----30.00- 84.4 85.6----
2026-09-01 0548SSE 7.0 8.0----30.00- 84.4 85.6----
2026-09-01 0542SSE 7.0 8.9----30.00- 84.2 85.6----
2026-09-01 0536SSE 8.0 8.9----30.00- 84.2 85.6----
2026-09-01 0530SSE 8.0 8.9----30.00- 84.2 85.6----
2026-09-01 0524SSE 8.0 9.9----30.00- 84.2 85.6----
2026-09-01 0518SSE 7.0 8.9----30.00-- 85.6----
2026-09-01 0512SSE 8.0 8.9----30.00-- 85.6----
2026-09-01 0506SSE 8.0 8.9----30.00-- 85.6----
2026-09-01 0500SSE 7.0 8.9----30.00+0.00 84.2 85.6----
2026-09-01 0454SSE 8.0 8.9----30.01- 84.2 85.6----
2026-09-01 0448SSE 7.0 8.9----30.01- 84.2 85.6----
2026-09-01 0442SSE 8.0 8.9----30.01- 84.4 85.6----
2026-09-01 0436SSE 7.0 8.9----30.01- 84.2 85.6----
2026-09-01 0430SSE 8.9 8.9----30.01- 84.2 85.6----
2026-09-01 0424SSE 8.0 8.9----30.00- 84.4 85.6----
2026-09-01 0418SSE 8.0 8.9----30.00-- 85.6----
2026-09-01 0412 SE 8.0 8.9----30.00-- 85.6----
2026-09-01 0406 SE 7.0 8.0----30.00-- 85.6----
2026-09-01 0400SSE 8.0 8.9----30.00+0.01 84.4 85.6----
2026-09-01 0354 SE 8.0 8.9----30.00- 84.4 85.6----
2026-09-01 0348 SE 8.0 8.9----30.00-- 85.6----
2026-09-01 0342 SE 7.0 8.0----30.01-- 85.6----
2026-09-01 0336 SE 7.0 8.9----30.00-- 85.8----
2026-09-01 0330 SE 7.0 8.0----30.01- 84.2 85.8----
2026-09-01 0324 SE 7.0 8.0----30.01- 84.2 85.8----
2026-09-01 0318SSE 6.0 8.0------- 85.8----
2026-09-01 0312SSE 7.0 8.9------- 85.8----
2026-09-01 0306 SE 8.0 8.9------- 85.8----
2026-09-01 0300SSE 7.0 8.9----30.01+0.04 84.2 85.8----
2026-09-01 0254SSE 7.0 9.9----30.01- 84.2 85.8----
2026-09-01 0248SSE 8.9 9.9----30.01- 84.2 85.8----
2026-09-01 0242SSE 8.9 11.1----30.00- 84.2 85.8----
2026-09-01 0236SSE 9.9 11.1----30.01- 84.2 85.8----
2026-09-01 0230SSE 8.9 11.1----30.00- 84.2 85.8----
2026-09-01 0224SSE 8.9 11.1----30.01- 84.2 85.8----
2026-09-01 0218SSE 8.9 12.0----30.00-- 85.8----
2026-09-01 0212SSE 9.9 11.1----30.00-- 85.8----
2026-09-01 0206SSE 9.9 12.0----30.00-- 85.8----
2026-09-01 0200SSE 8.9 11.1----30.00+0.01 84.2 85.8----
2026-09-01 0154SSE 9.9 12.0----30.00- 84.2 85.8----
2026-09-01 0148SSE 9.9 12.0----29.99- 84.4 85.8----
2026-09-01 0142SSE 9.9 12.0----29.99- 84.4 85.8----
2026-09-01 0136SSE 9.9 12.0----29.99- 84.6 85.8----
2026-09-01 0130SSE 9.9 12.0----29.99- 84.6 85.8----
2026-09-01 0124SSE 11.1 12.0----29.99- 84.4 85.8----
2026-09-01 0118SSE 11.1 13.0----29.99-- 85.8----
2026-09-01 0112SSE 11.1 12.0----29.99-- 86.0----
2026-09-01 0106SSE 9.9 11.1----29.99-- 86.0----
2026-09-01 0100 SE 9.9 11.1----29.99+0.00 84.6 86.0----
2026-09-01 0054SSE 8.9 11.1----29.99- 84.6 86.0----
2026-09-01 0048 SE 9.9 12.0----29.99-- 86.0----
2026-09-01 0042 SE 9.9 12.0----29.98-- 86.0----
2026-09-01 0036 SE 11.1 12.0----29.99-- 86.0----
2026-09-01 0030 SE 9.9 11.1----29.98- 84.7 86.0----
2026-09-01 0024 SE 9.9 11.1----29.98- 84.6 86.2----
2026-09-01 0018 SE 9.9 12.0----29.98-- 86.2----
2026-09-01 0012 SE 9.9 13.0----29.97-- 86.2----
2026-09-01 0006 SE 11.1 13.0----29.97-- 86.4----
2026-09-01 0000 SE 9.9 11.1----29.97-0.03 84.6 86.4----
2026-08-31 2354 SE 9.9 11.1----29.98- 84.4 86.4----
2026-08-31 2348 SE 8.9 9.9----29.98-- 86.4----
2026-08-31 2342 SE 9.9 11.1----29.98-- 86.4----
2026-08-31 2336 SE 9.9 11.1----29.98-- 86.4----
2026-08-31 2248 SE 9.9 12.0----29.99- 85.3 86.4----
2026-08-31 2242 SE 11.1 13.0----29.99- 85.3 86.4----
2026-08-31 2236 SE 11.1 13.0----29.99- 85.1 86.4----
2026-08-31 2230 SE 12.0 13.0----29.99- 84.9 86.5----
2026-08-31 2224 SE 12.0 13.0----29.99- 84.9 86.5----
2026-08-31 2218 SE 12.0 13.0----29.99- 85.1 86.5----
2026-08-31 2212 SE 12.0 13.0----29.99- 84.9 86.5----
2026-08-31 2206 SE 11.1 14.0----29.98- 85.1 86.5----
2026-08-31 2200 SE 11.1 14.0----29.99-0.04 84.9 86.5----
2026-08-31 2154 SE 11.1 13.0----29.99- 85.1 86.5----
2026-08-31 2148 SE 12.0 13.0----29.99- 84.9 86.7----
2026-08-31 2142 SE 12.0 13.0----29.99- 84.9 86.7----
2026-08-31 2136 SE 11.1 12.0----29.99- 85.1 86.7----
2026-08-31 2130 SE 11.1 12.0----29.99- 85.3 86.5----
2026-08-31 2124 SE 9.9 12.0----29.99- 85.3 86.5----
2026-08-31 2118 SE 8.9 11.1----30.00-- 86.5----
2026-08-31 2112 SE 9.9 12.0----30.00-- 86.5----
2026-08-31 2106 SE 12.0 13.0----30.00-- 86.5----
2026-08-31 2100 SE 9.9 13.0----30.00-0.03 85.1 86.4----
2026-08-31 2054 SE 12.0 13.0----30.00- 84.9 86.5----
2026-08-31 2048 SE 12.0 14.0----30.00- 84.7 86.5----
2026-08-31 2042 SE 11.1 13.0----30.00- 84.9 86.5----
2026-08-31 2036 SE 11.1 13.0----30.01- 84.9 86.4----
2026-08-31 2030 SE 11.1 12.0----30.01- 84.9 86.4----
2026-08-31 2024 SE 12.0 12.0----30.01- 84.7 86.4----
2026-08-31 2018 SE 12.0 12.0----30.00-- 86.4----
2026-08-31 2012 SE 11.1 12.0----30.00-- 86.4----
2026-08-31 2006 SE 11.1 13.0----30.00-- 86.4----
2026-08-31 2000 SE 12.0 14.0----30.00-0.04 84.7 86.4----
2026-08-31 1954 SE 12.0 14.0----30.00- 84.6 86.4----
2026-08-31 1948 SE 11.1 13.0----30.01- 84.7 86.2----
2026-08-31 1942 SE 12.0 12.0----30.01- 84.9 86.2----
2026-08-31 1936 SE 11.1 12.0----30.01- 84.9 86.2----
2026-08-31 1930 SE 11.1 12.0----30.01- 84.6 86.2----
2026-08-31 1924 SE 11.1 12.0----30.01- 84.4 86.2----
2026-08-31 1918 SE 9.9 12.0----30.01-- 86.2----
2026-08-31 1912ESE 11.1 13.0----30.02-- 86.0----
2026-08-31 1906 SE 12.0 13.0----30.02-- 86.0----
2026-08-31 1900 SE 12.0 14.0----30.02-0.03 84.6 86.0----
2026-08-31 1854 SE 12.0 15.0----30.02- 84.6 86.0----
2026-08-31 1848 SE 12.0 14.0----30.02- 84.6 85.8----
2026-08-31 1842ESE 11.1 14.0----30.02- 84.7 86.0----
2026-08-31 1836ESE 11.1 14.0----30.02- 84.6 85.6----
2026-08-31 1830ESE 13.0 15.0----30.02- 84.6 85.6----
2026-08-31 1824ESE 13.0 14.0----30.02- 84.6 85.8----
2026-08-31 1818 SE 12.0 14.0----30.03-- 85.6----
2026-08-31 1812 SE 12.0 13.0----30.03-- 85.6----
2026-08-31 1806ESE 13.0 14.0----30.03-- 85.6----
2026-08-31 1800 SE 12.0 13.0----30.03-0.01 85.1 85.6----
2026-08-31 1754 SE 12.0 15.0----30.03- 84.9 85.6----
2026-08-31 1748 SE 12.0 14.0----30.03-- 85.6----
2026-08-31 1742 SE 11.1 13.0----30.03-- 85.5----
2026-08-31 1736ESE 11.1 12.0----30.03-- 85.5----
2026-08-31 1730ESE 11.1 12.0----30.03- 84.6 85.5----
2026-08-31 1724ESE 8.9 9.9----30.03- 84.6 85.5----
2026-08-31 1718SSE 8.0 9.9----30.03-- 85.6----
2026-08-31 1712 S 8.0 9.9----30.03-- 85.6----
2026-08-31 1706 S 8.9 12.0----30.04-- 85.5----
2026-08-31 1700 SE 9.9 11.1----30.04+0.00 84.7 85.5----
2026-08-31 1654 E 6.0 8.0----30.04- 84.4 85.5----
2026-08-31 1648 E 7.0 8.0----30.05- 84.2 85.3----
2026-08-31 1642 E 7.0 8.0----30.04- 84.0 85.3----
2026-08-31 1636 E 7.0 8.0----30.05- 83.8 85.3----
2026-08-31 1630 E 6.0 8.0----30.05- 83.8 85.1----
2026-08-31 1624 E 7.0 8.0----30.05- 83.8 85.1----
2026-08-31 1618 E 5.1 6.0----30.05-- 84.9----
2026-08-31 1612 E 5.1 8.0----30.05-- 84.9----
2026-08-31 1606 E 7.0 8.9----30.05-- 84.7----
2026-08-31 1600ESE 8.9 11.1----30.05+0.03 83.7 84.7----
2026-08-31 1554 E 8.9 11.1----30.05- 83.3 84.7----
2026-08-31 1548 E 7.0 11.1----30.05- 83.1 84.7----
2026-08-31 1542 E 8.9 8.9----30.05- 82.9 84.7----
2026-08-31 1536 E 8.9 11.1----30.05- 82.2 84.7----
2026-08-31 1530 E 9.9 12.0----30.05- 82.4 84.6----
2026-08-31 1524 E 9.9 11.1----30.05- 82.4 84.6----
2026-08-31 1518 E 8.0 9.9----30.05-- 84.6----
2026-08-31 1512 E 8.9 11.1----30.05-- 84.6----
2026-08-31 1506 E 8.9 11.1----30.04-- 84.6----
2026-08-31 1500ENE 8.9 12.0----30.04+0.04 81.9 84.6----
2026-08-31 1454 E 9.9 11.1----30.04- 82.4 84.6----
2026-08-31 1448ENE 9.9 13.0----30.04- 82.2 84.6----
2026-08-31 1442 E 11.1 12.0----30.04- 81.5 84.6----
2026-08-31 1436 E 12.0 15.0----30.04- 81.3 84.6----
2026-08-31 1430 E 11.1 13.0----30.04- 81.5 84.6----
2026-08-31 1424 E 11.1 13.0----30.04- 81.3 84.4----
2026-08-31 1418 E 8.9 11.1----30.04-- 84.4----
2026-08-31 1412 E 9.9 12.0----30.04-- 84.4----
2026-08-31 1406 E 9.9 13.0----30.04-- 84.4----
2026-08-31 1400 E 13.0 14.0----30.03+0.04 81.0 84.4----
2026-08-31 1354 E 12.0 13.0----30.03- 81.0 84.4----
2026-08-31 1348ENE 12.0 14.0----30.03-- 84.4----
2026-08-31 1342 E 13.0 14.0----30.03-- 84.4----
2026-08-31 1336 E 13.0 15.0----30.03-- 84.4----
2026-08-31 1330ENE 12.0 14.0----30.03- 81.5 84.4----
2026-08-31 1324 E 12.0 13.0----30.03- 81.5 84.4----
2026-08-31 1318 E 11.1 13.0----30.03-- 84.4----
2026-08-31 1312 E 12.0 12.0----30.02-- 84.4----
2026-08-31 1306 E 9.9 12.0----30.02-- 84.4----
2026-08-31 1300 E 9.9 12.0----30.02+0.04 82.0 84.4----
2026-08-31 1254 E 11.1 12.0----30.02- 81.5 84.4----
2026-08-31 1248 E 11.1 13.0----30.02-- 84.4----
2026-08-31 1242 E 9.9 12.0----30.02-- 84.4----
2026-08-31 1236 E 9.9 12.0----30.02-- 84.4----
2026-08-31 1230 E 9.9 11.1----30.01- 82.2 84.4----
2026-08-31 1224 E 8.0 11.1----30.01- 82.6 84.4----
2026-08-31 1218 E 8.9 9.9----30.01-- 84.4----
2026-08-31 1212 E 8.0 9.9----30.00-- 84.4----
2026-08-31 1206 E 9.9 13.0----30.00-- 84.4----
2026-08-31 1200 E 9.9 12.0----30.00+0.03 81.1 84.4----
2026-08-31 1154 E 9.9 11.1----30.00- 81.3 84.4----
2026-08-31 1148 E 8.9 11.1----29.99-- 84.4----
2026-08-31 1142 E 8.9 12.0----29.99-- 84.4----
2026-08-31 1136 E 9.9 13.0----29.99-- 84.2----
2026-08-31 1130 E 11.1 13.0----30.00- 81.0 84.2----
2026-08-31 1124 E 12.0 14.0----29.99- 80.8 84.2----
2026-08-31 1118 E 12.0 14.0----29.99-- 84.2----
2026-08-31 1112 E 13.0 15.9----29.99-- 84.2----
2026-08-31 1106 E 14.0 15.9----29.99-- 84.2----
2026-08-31 1100 E 13.0 15.0----29.99+0.03 80.6 84.2----
2026-08-31 1054 E 13.0 15.0----29.99- 80.8 84.2----
2026-08-31 1048 E 12.0 15.9----29.99- 80.6 84.2----
2026-08-31 1042 E 13.0 15.0----29.99- 80.6 84.2----
2026-08-31 1036 E 12.0 15.0----29.99- 80.6 84.2----
2026-08-31 1030 E 12.0 15.0----29.99- 80.8 84.2----
2026-08-31 1024 E 12.0 15.0----29.99- 80.8 84.4----
2026-08-31 1018 E 12.0 14.0----29.99-- 84.4----
2026-08-31 1012 E 13.0 14.0----29.99-- 84.4----
2026-08-31 1006 E 12.0 14.0----29.99-- 84.4----
2026-08-31 1000 E 9.9 14.0----29.98+0.01 81.1 84.4----
2026-08-31 0954 E 11.1 13.0----29.98- 81.0 84.4----
2026-08-31 0948 E 9.9 14.0----29.98- 81.1 84.4----
2026-08-31 0942 E 12.0 13.0----29.98- 81.5 84.6----
2026-08-31 0936 E 11.1 12.0----29.98- 81.3 84.6----
2026-08-31 0930 E 8.9 12.0----29.97- 81.7 84.6----
2026-08-31 0924 E 9.9 12.0----29.97- 81.5 84.6----
2026-08-31 0918 E 8.9 12.0----29.97-- 84.6----
2026-08-31 0912 E 9.9 12.0----29.97-- 84.6----
2026-08-31 0906 E 9.9 11.1----29.97-- 84.6----
2026-08-31 0900 E 9.9 12.0----29.97-0.02 81.5 84.6----
2026-08-31 0854 E 8.0 9.9----29.97- 81.9 84.6----
2026-08-31 0848 E 8.0 11.1----29.97- 81.7 84.6----
2026-08-31 0842 E 11.1 12.0----29.97- 81.3 84.6----
2026-08-31 0836 E 8.9 11.1----29.97- 81.3 84.6----
2026-08-31 0830ENE 11.1 12.0----29.97- 81.3 84.7----
2026-08-31 0824ENE 11.1 12.0----29.97- 81.9 84.7----
2026-08-31 0818 E 9.9 11.1----29.97-- 84.9----
2026-08-31 0812ENE 9.9 13.0----29.97-- 84.9----
2026-08-31 0806 E 11.1 12.0----29.97-- 84.9----
2026-08-31 0800 E 7.0 8.9----29.96-0.04 83.3 84.9----
2026-08-31 0754 E 7.0 8.0----29.96- 83.3 84.9----